TimeMDT,TemperatureF,Dew PointF,Humidity,Sea Level PressureIn,VisibilityMPH,Wind Direction,Wind SpeedMPH,Gust SpeedMPH,PrecipitationIn,Events,Conditions,WindDirDegrees,DateUTC
12:56 AM,70.0,43.0,38,29.76,-9999.0,SW,18.4,26.5,N/A,,Unknown,220,2013-05-26 06:56:00
1:56 AM,70.0,43.0,38,29.74,-9999.0,SW,16.1,24.2,N/A,,Unknown,230,2013-05-26 07:56:00
2:56 AM,68.0,50.0,52,29.73,-9999.0,SW,18.4,25.3,N/A,,Unknown,230,2013-05-26 08:56:00
3:56 AM,64.0,50.0,60,29.72,-9999.0,SW,17.3,-,N/A,,Unknown,220,2013-05-26 09:56:00
4:56 AM,60.1,50.0,69,29.74,-9999.0,SSW,12.7,-,N/A,,Unknown,200,2013-05-26 10:56:00
5:56 AM,63.0,45.0,52,29.72,-9999.0,SSW,11.5,-,N/A,,Unknown,200,2013-05-26 11:56:00
6:56 AM,60.1,48.9,67,29.73,-9999.0,South,12.7,-,N/A,,Unknown,190,2013-05-26 12:56:00
7:56 AM,70.0,48.0,46,29.73,-9999.0,SSW,12.7,-,N/A,,Unknown,200,2013-05-26 13:56:00
8:56 AM,78.1,45.0,31,29.71,-9999.0,SSW,11.5,-,N/A,,Unknown,210,2013-05-26 14:56:00
9:56 AM,81.0,45.0,28,29.71,-9999.0,South,15.0,20.7,N/A,,Unknown,190,2013-05-26 15:56:00
10:56 AM,84.9,42.1,22,29.70,-9999.0,South,9.2,16.1,N/A,,Unknown,180,2013-05-26 16:56:00
11:56 AM,89.1,32.0,13,29.68,-9999.0,Variable,4.6,-,N/A,,Unknown,0,2013-05-26 17:56:00
12:56 PM,91.9,33.1,12,29.65,-9999.0,Variable,3.5,-,N/A,,Unknown,0,2013-05-26 18:56:00
1:56 PM,93.0,30.0,11,29.62,-9999.0,SW,8.1,23.0,N/A,,Unknown,220,2013-05-26 19:56:00
2:56 PM,95.0,18.0,6,29.60,-9999.0,WSW,13.8,24.2,N/A,,Unknown,240,2013-05-26 20:56:00
3:56 PM,91.0,14.0,6,29.61,-9999.0,SW,18.4,32.2,N/A,,Unknown,220,2013-05-26 21:56:00
4:56 PM,91.0,10.9,5,29.61,-9999.0,WSW,23.0,34.5,N/A,,Unknown,240,2013-05-26 22:56:00
5:56 PM,90.0,10.9,5,29.58,-9999.0,SW,12.7,18.4,N/A,,Unknown,230,2013-05-26 23:56:00
6:56 PM,89.1,10.0,5,29.59,-9999.0,SW,17.3,-,N/A,,Unknown,220,2013-05-27 00:56:00
7:56 PM,82.0,16.0,8,29.59,-9999.0,SSW,12.7,-,N/A,,Unknown,210,2013-05-27 01:56:00
8:56 PM,73.9,19.0,13,29.60,-9999.0,SW,15.0,-,N/A,,Unknown,220,2013-05-27 02:56:00
9:56 PM,70.0,19.9,15,29.61,-9999.0,SW,12.7,-,N/A,,Unknown,220,2013-05-27 03:56:00
10:56 PM,69.1,17.1,14,29.60,-9999.0,WSW,8.1,-,N/A,,Unknown,240,2013-05-27 04:56:00
11:56 PM,66.0,18.0,16,29.60,-9999.0,West,9.2,-,N/A,,Unknown,260,2013-05-27 05:56:00